Weather History for Park Rapids, MN

Change the Weather History Date:

Sunday, January 20, 2013

  Actual Average Record
Temperature  
Mean Temperature -8 °F -  
Max Temperature 0 °F 19 °F 44 °F (1968)
Min Temperature -17 °F -4 °F -42 °F (1996)
Degree Days  
Heating Degree Days 74    
Moisture  
Dew Point -16 °F    
Average Humidity 70    
Maximum Humidity 82    
Minimum Humidity 60    
Precipitation  
Precipitation 0.00 in - - ()
Sea Level Pressure  
Sea Level Pressure 30.34 in    
Wind  
Wind Speed 11 mph (WNW)    
Max Wind Speed 20 mph    
Max Gust Speed 25 mph    
Visibility 8 miles    
Events Snow    
Averages and records for this station are not official NWS values.
T = Trace of Precipitation, MM = Missing Value Source: NWS Daily Summary

Daily Weather History Graph

Daily Weather History Graph

Search for Another Location

Airport:

Trip Planner

Search our weather history database for the weather conditions in past years. The results will help you decide how hot, cold, wet, or windy it might be!

Date:

Astronomy

Jan. 20, 2013 Rise Set
Actual Time 7:57 AM CST 5:05 PM CST
Civil Twilight 7:23 AM CST 5:39 PM CST
Nautical Twilight 6:46 AM CST 6:16 PM CST
Astronomical Twilight 6:10 AM CST 6:53 PM CST
Moon 12:08 PM CST (1/20) 2:28 AM CST (1/20)
Length of Visible Light 10h 15m
Length of Day
9h 08m
Waxing Gibbous, 66% of the Moon is Illuminated
Jan 20
Waxing Gibbous
Jan 26
Full
Feb 3
Last Quarter
Feb 10
New
Feb 17
First Quarter

Hourly Weather History & Observations

Time (CST) Temp. Windchill Dew Point Humidity Pressure Visibility Wind Dir Wind Speed Gust Speed Precip Events Conditions
12:53 AM -9.9 °F -27.5 °F -16.1 °F 74% 30.33 in 10.0 mi NW 9.2 mph - N/A   Clear
1:53 AM -9.0 °F -28.4 °F -15.0 °F 75% 30.36 in 10.0 mi WNW 11.5 mph - N/A   Clear
2:53 AM -9.0 °F -28.4 °F -15.0 °F 75% 30.39 in 10.0 mi WNW 11.5 mph - N/A   Clear
3:53 AM -9.9 °F -27.5 °F -16.1 °F 74% 30.39 in 10.0 mi WNW 9.2 mph - N/A   Clear
4:53 AM -11.9 °F -28.7 °F -17.0 °F 78% 30.40 in 10.0 mi WNW 8.1 mph - N/A   Clear
5:53 AM -16.1 °F -28.6 °F -20.0 °F 82% 30.39 in 10.0 mi NW 4.6 mph - N/A   Clear
6:53 AM -17.0 °F -31.7 °F -20.9 °F 82% 30.39 in 10.0 mi WNW 5.8 mph - N/A   Clear
7:53 AM -13.0 °F -28.6 °F -18.9 °F 75% 30.41 in 10.0 mi West 6.9 mph - N/A   Clear
8:53 AM -9.9 °F -26.3 °F -15.0 °F 78% 30.42 in 1.8 mi West 8.1 mph - 0.00 in Snow Light Snow
9:18 AM -9.4 °F -24.3 °F -14.8 °F 77% 30.28 in 2.5 mi West 6.9 mph - 0.00 in Snow Light Snow
9:37 AM -7.6 °F -24.6 °F -14.8 °F 71% 30.28 in 4.0 mi West 9.2 mph - 0.00 in   Haze
9:53 AM -7.1 °F -25.0 °F -13.0 °F 75% 30.43 in 4.0 mi West 10.4 mph - 0.00 in   Haze
10:53 AM -5.1 °F -23.5 °F -11.0 °F 76% 30.42 in 3.0 mi West 11.5 mph - 0.00 in Snow Light Snow
11:53 AM -2.0 °F -18.7 °F -9.9 °F 69% 30.40 in 5.0 mi West 10.4 mph - 0.00 in   Haze
12:33 PM -0.4 °F -19.9 °F -9.4 °F 66% 30.24 in 6.0 mi West 15.0 mph - N/A   Haze
12:53 PM -0.0 °F -18.7 °F -9.0 °F 66% 30.38 in 7.0 mi West 13.8 mph - 0.00 in   Overcast
1:53 PM -0.0 °F -20.1 °F -11.0 °F 60% 30.37 in 10.0 mi WNW 16.1 mph - N/A   Overcast
2:53 PM -0.9 °F -21.9 °F -11.9 °F 60% 30.35 in 10.0 mi WNW 17.3 mph 25.3 mph 0.00 in   Partly Cloudy
3:10 PM -0.4 °F -22.3 °F -11.2 °F 60% 30.21 in 8.0 mi WNW 19.6 mph 25.3 mph N/A   Mostly Cloudy
3:53 PM -2.9 °F -23.1 °F -13.0 °F 62% 30.35 in 10.0 mi WNW 15.0 mph - N/A   Scattered Clouds
4:06 PM -2.2 °F -22.9 °F -13.0 °F 60% 30.21 in 10.0 mi WNW 16.1 mph - N/A   Mostly Cloudy
4:24 PM -4.0 °F -25.2 °F -14.8 °F 60% 30.21 in 10.0 mi WNW 16.1 mph - N/A   Scattered Clouds
4:53 PM -6.0 °F -28.4 °F -15.0 °F 65% 30.37 in 10.0 mi WNW 17.3 mph - N/A   Partly Cloudy
5:53 PM -7.1 °F -26.8 °F -15.0 °F 68% 30.38 in 10.0 mi WNW 12.7 mph - N/A   Clear
6:53 PM -8.0 °F -28.8 °F -16.1 °F 68% 30.37 in 10.0 mi WNW 13.8 mph - N/A   Clear
7:53 PM -9.0 °F -29.3 °F -16.1 °F 71% 30.36 in 10.0 mi WNW 12.7 mph - N/A   Clear
8:39 PM -9.4 °F -30.6 °F -16.6 °F 71% 30.20 in 10.0 mi WNW 13.8 mph - N/A   Mostly Cloudy
8:53 PM -9.0 °F -28.4 °F -17.0 °F 68% 30.35 in 6.0 mi NW 11.5 mph - N/A   Haze
9:53 PM -11.0 °F -34.2 °F -18.9 °F 68% 30.35 in 7.0 mi NW 16.1 mph - N/A   Overcast
10:53 PM -13.0 °F -36.0 °F -20.9 °F 68% 30.36 in 7.0 mi NW 15.0 mph - N/A   Overcast
11:20 PM -14.8 °F -35.6 °F -20.2 °F 77% 30.21 in 2.5 mi WNW 11.5 mph - N/A   Haze
11:28 PM -14.8 °F -38.3 °F -22.0 °F 70% 30.22 in 5.0 mi WNW 15.0 mph - N/A   Haze
11:53 PM -15.0 °F -37.7 °F -23.1 °F 67% 30.37 in 10.0 mi NW 13.8 mph - N/A   Overcast